Volver al catálogo

STARLINK-34685

ActivoComunicacionesVLEO
NORAD 64813·PAYLOAD·🇺🇸 United States

Lanzado Jul 16, 2025 desde Vandenberg Space Force Base

Loading…

Próximos Pases (próximas 24 horas)

TLE

ActualizadoSource: CelesTrak SupGP

Época: Sep 15, 2026, 02:54 UTC

1 64813C 25150Z   26258.12131944  .00037446  00000+0  31399-2 0  2581
2 64813  70.0029  17.0347 0003296 263.4848 200.8710 14.98288990    16

Sigue STARLINK-34685 en tiempo real con AllMySat

Download on the App Store